TimeCDT,TemperatureF,Dew PointF,Humidity,Sea Level PressureIn,VisibilityMPH,Wind Direction,Wind SpeedMPH,Gust SpeedMPH,PrecipitationIn,Events,Conditions,WindDirDegrees,DateUTC
12:53 AM,53.1,43.0,69,29.82,10.0,SSE,8.1,-,N/A,,Clear,150,2012-10-16 05:53:00
1:53 AM,54.0,43.0,66,29.80,10.0,SSE,6.9,-,N/A,,Clear,160,2012-10-16 06:53:00
2:53 AM,54.0,44.1,69,29.75,10.0,SSE,9.2,-,N/A,,Clear,160,2012-10-16 07:53:00
3:53 AM,53.1,44.1,71,29.71,10.0,SSE,9.2,-,N/A,,Clear,160,2012-10-16 08:53:00
4:53 AM,53.1,44.1,71,29.68,10.0,South,12.7,-,N/A,,Clear,170,2012-10-16 09:53:00
5:53 AM,52.0,45.0,77,29.68,10.0,South,8.1,-,N/A,,Clear,170,2012-10-16 10:53:00
7:53 AM,51.1,46.0,83,29.64,10.0,South,11.5,-,N/A,,Clear,170,2012-10-16 12:53:00
8:53 AM,55.0,48.0,77,29.62,10.0,South,11.5,-,N/A,,Clear,190,2012-10-16 13:53:00
9:53 AM,61.0,50.0,67,29.60,10.0,SSW,16.1,21.9,N/A,,Clear,210,2012-10-16 14:53:00
10:53 AM,66.9,50.0,54,29.58,10.0,SSW,23.0,27.6,N/A,,Clear,210,2012-10-16 15:53:00
11:53 AM,71.1,51.1,49,29.57,10.0,SW,12.7,26.5,N/A,,Clear,220,2012-10-16 16:53:00
12:53 PM,73.0,50.0,44,29.55,10.0,SSW,16.1,27.6,N/A,,Clear,210,2012-10-16 17:53:00
1:53 PM,71.1,48.9,45,29.50,10.0,SSW,16.1,24.2,N/A,,Clear,210,2012-10-16 18:53:00
2:53 PM,73.9,48.9,41,29.51,10.0,WSW,18.4,25.3,N/A,,Clear,240,2012-10-16 19:53:00
3:53 PM,75.0,48.9,40,29.48,10.0,SW,18.4,26.5,N/A,,Clear,230,2012-10-16 20:53:00
4:53 PM,75.0,48.9,40,29.47,10.0,WSW,15.0,-,N/A,,Clear,240,2012-10-16 21:53:00
5:53 PM,71.1,48.0,44,29.48,10.0,West,8.1,-,N/A,,Clear,260,2012-10-16 22:53:00
6:53 PM,64.9,46.9,52,29.48,10.0,WSW,8.1,-,N/A,,Clear,250,2012-10-16 23:53:00
7:53 PM,64.0,46.0,52,29.49,10.0,WSW,6.9,-,N/A,,Clear,240,2012-10-17 00:53:00
8:53 PM,61.0,46.0,58,29.49,10.0,SW,6.9,-,N/A,,Clear,220,2012-10-17 01:53:00
9:53 PM,60.1,46.0,60,29.50,10.0,South,9.2,-,N/A,,Clear,180,2012-10-17 02:53:00
10:53 PM,59.0,46.9,64,29.49,10.0,South,8.1,-,N/A,,Clear,190,2012-10-17 03:53:00
11:53 PM,61.0,51.1,70,29.46,10.0,SSW,8.1,-,N/A,,Clear,210,2012-10-17 04:53:00